Find Starlink 30074

NORAD ID: 57508 Int'l Des: 2023-113 Owner: SPXS Country: US Constellation: starlink operational
LEOCIRCULAR

Live Position

Loading 3D Globe...

About Starlink 30074

Description loading...

Upcoming Passes

Passes for default location (London). Set your location on the main map for personalized predictions.

Altitude History

Loading altitude history...

Two-Line Element Set

1 57508U 23113P 26130.02339647 -.00002172 00000-0 -69451-4 0 9994
2 57508 43.0030 29.8291 0001312 270.3570 89.7131 15.27563869152840
Epoch: May 10, 2026 • Age: 9 hours

Current Status

Altitude 482.7 km
Velocity 7.63 km/s
Sub-Earth Point 16.75°N, 175.33°W
Launch Date Aug 7, 2023
Age 2.7 years
Type internet

Technical Details

Classification Payload
Mass 730.00 kg
Dry Mass 700.00 kg
Total Mass 730.00 kg
Length 0.30 m
Diameter 4.10 m
Span 29.00 m
Shape Box + pan
Manufacturer SPXS
Bus Type Starlink V2M
Phase Status In Orbit
Owner/State SPXS/US

Most Searched